Location: DARK SKY Beskydy - Park tmavé oblohy, www.darkskybeskydy.cz
(49.4926°N, 18.5016°E)
Time: 04:59:01
(UTC+01:00)

N. Korean satellite - Pass Details

Date: 13 December 2022
Orbit: 407 x 441 km, 97.3° (Epoch: 05 February)

Event Time Altitude Azimuth Distance (km) Brightness Sun altitude
Rises 16:51:15 0° 193° (SSW) 2,478 10.7 -9.9°
Reaches altitude 10° 16:53:31 10° 207° (SSW) 1,614 10.0 -10.3°
Maximum altitude 16:56:28 26° 265° (W) 965 9.0 -10.7°
Drops below altitude 10° 16:59:27 10° 323° (NW) 1,633 9.4 -11.2°
Sets 17:01:46 0° 337° (NNW) 2,515 10.2 -11.5°
